EW7906 Weather Reports


Display with metric or nautical units.
time (UTC)temp
F
wind
direction
speed
MPH
gust
MPH
rain 1hr
in
rain 24hr
in
rain mn
in
humidity
%
barometer
mb
20260506084528 100 109 0.0 5.0 0.00 0.00 0.00 100 1007.3
20260506084022 100 118 2.0 9.0 0.00 0.00 0.00 100 1007.2
20260506083514 100 164 3.0 9.0 0.00 0.00 0.00 100 1007.2
20260506083010 100 156 2.0 10.0 0.00 0.00 0.00 100 1007.2
20260506082509 100 194 4.0 12.0 0.00 0.00 0.00 100 1007.2
20260506082009 100 175 4.0 12.0 0.00 0.00 0.00 100 1007.2
20260506081506 100 172 3.0 6.0 0.00 0.00 0.00 100 1007.2
20260506080959 100 42 0.0 7.0 0.00 0.00 0.00 100 1007.2
20260506080450 100 154 2.0 7.0 0.00 0.00 0.00 100 1007.2
20260506073445 100 54 4.0 9.0 0.00 0.00 0.00 100 1007.5
20260506072944 100 146 0.0 9.0 0.00 0.00 0.00 100 1007.6
20260506072715 100 146 4.0 11.0 0.00 0.00 0.00 100 1007.6
20260506071944 100 80 0.0 11.0 0.00 0.00 0.00 100 1007.7
20260506071444 100 150 3.0 12.0 0.00 0.00 0.00 100 1007.7
20260506070944 100 156 4.0 12.0 0.00 0.00 0.00 100 1007.7
20260506070443 100 139 2.0 11.0 0.00 0.00 0.00 100 1007.7
20260506062213 100 149 5.0 9.0 0.00 0.00 0.00 100 1007.8
20260506061442 100 127 4.0 8.0 0.00 0.00 0.00 100 1007.9
20260506060942 100 123 0.0 12.0 0.00 0.00 0.00 100 1007.6
20260506060443 100 149 4.0 12.0 0.00 0.00 0.00 100 1007.5
20260506050914 100 170 4.0 7.0 0.00 0.00 0.00 100 1007.7
20260506050414 100 109 1.0 6.0 0.00 0.00 0.00 100 1007.7
20260506044859 100 137 2.0 6.0 0.00 0.00 0.00 100 1007.7
20260506044357 100 135 0.0 6.0 0.00 0.00 0.00 100 1007.6
20260506044128 100 189 0.0 7.0 0.00 0.00 0.00 100 1007.6
20260506043354 100 118 4.0 8.0 0.00 0.00 0.00 100 1007.7
20260506042850 100 170 4.0 8.0 0.00 0.00 0.00 100 1007.7
20260506042345 100 146 0.0 9.0 0.00 0.00 0.00 100 1007.7
20260506041840 100 136 3.0 9.0 0.00 0.00 0.00 100 1007.6
20260506041336 100 133 0.0 6.0 0.00 0.00 0.00 100 1007.6
20260506041323 100 130 2.0 6.0 0.00 0.00 0.00 100 1007.6
20260506040321 100 168 0.0 8.0 0.00 0.00 0.00 100 1007.5
20260506035821 100 154 3.0 8.0 0.00 0.00 0.00 100 1007.5
20260506035321 100 194 4.0 7.0 0.00 0.00 0.00 100 1007.5
20260506034822 100 143 2.0 10.0 0.00 0.00 0.00 100 1007.4
20260506034304 100 147 5.0 10.0 0.00 0.00 0.00 100 1007.3
20260506034035 100 109 4.0 6.0 0.00 0.00 0.00 100 1007.2
20260506033304 100 127 2.0 8.0 0.00 0.00 0.00 100 1007.4
20260506032805 101 143 3.0 9.0 0.00 0.00 0.00 100 1007.4
20260506032255 100 150 0.0 9.0 0.00 0.00 0.00 100 1007.3
20260506031750 101 191 2.0 9.0 0.00 0.00 0.00 100 1007.3
20260506031250 101 158 5.0 9.0 0.00 0.00 0.00 100 1007.2
20260506030750 101 129 1.0 7.0 0.00 0.00 0.00 100 1007.2
20260506030517 101 149 0.0 7.0 0.00 0.00 0.00 100 1007.1
20260506025744 101 127 1.0 6.0 0.00 0.00 0.00 100 1007.1
20260506025244 101 163 0.0 6.0 0.00 0.00 0.00 100 1006.9
20260506024743 101 106 0.0 3.0 0.00 0.00 0.00 100 1006.8
20260506024243 101 106 0.0 0.0 0.00 0.00 0.00 100 1006.7
20260506023739 101 106 0.0 0.0 0.00 0.00 0.00 100 1006.7
20260506023229 101 106 0.0 1.0 0.00 0.00 0.00 100 1006.5
20260506022718 101 106 0.0 3.0 0.00 0.00 0.00 100 1006.3
20260506022217 101 106 0.0 3.0 0.00 0.00 0.00 100 1006.2
20260506021718 101 140 0.0 0.0 0.00 0.00 0.00 100 1006.2
20260506021214 101 140 0.0 0.0 0.00 0.00 0.00 100 1006.1
20260506020712 101 140 0.0 1.0 0.00 0.00 0.00 100 1006.1
20260506020213 101 140 0.0 4.0 0.00 0.00 0.00 100 1005.8
20260506015713 101 140 1.0 4.0 0.00 0.00 0.00 100 1005.7
20260506015208 101 156 0.0 3.0 0.00 0.00 0.00 100 1005.6
20260506014703 101 167 0.0 5.0 0.00 0.00 0.00 100 1005.7
20260506014201 101 167 1.0 5.0 0.00 0.00 0.00 100 1005.6
20260506013918 101 147 0.0 0.0 0.00 0.00 0.00 100 1005.6
20260506013123 101 147 0.0 0.0 0.00 0.00 0.00 100 1005.6
20260506012616 101 147 0.0 5.0 0.00 0.00 0.00 100 1005.6
20260506012111 101 147 0.0 5.0 0.00 0.00 0.00 100 1005.5
20260506011556 101 125 0.0 5.0 0.00 0.00 0.00 100 1005.5
20260506011056 101 151 3.0 5.0 0.00 0.00 0.00 100 1005.6
20260506010554 101 153 0.0 0.0 0.00 0.00 0.00 100 1005.6
20260506010049 101 153 0.0 0.0 0.00 0.00 0.00 100 1005.6
20260506005535 101 153 0.0 0.0 0.00 0.00 0.00 100 1005.6
20260506005034 101 153 0.0 0.0 0.00 0.00 0.00 100 1005.6
20260506004535 102 153 0.0 0.0 0.00 0.00 0.00 100 1005.5
20260506004033 102 153 0.0 0.0 0.00 0.00 0.00 100 1005.6
20260506003534 102 153 0.0 0.0 0.00 0.00 0.00 100 1005.6
20260506003019 102 153 0.0 6.0 0.00 0.00 0.00 100 1005.5
20260506002514 102 153 0.0 6.0 0.00 0.00 0.00 100 1005.5
20260506002245 102 102 0.0 2.0 0.00 0.00 0.00 100 1005.6
20260506001503 102 119 0.0 2.0 0.00 0.00 0.00 100 1005.6
20260506001003 102 119 0.0 4.0 0.00 0.00 0.00 100 1005.5
20260506000455 102 119 0.0 6.0 0.00 0.00 0.00 100 1005.5
20260505235943 102 160 1.0 6.0 0.00 0.00 0.00 100 1005.5
20260505235443 102 102 2.0 6.0 0.00 0.00 0.00 100 1005.4
20260505235149 102 161 1.0 9.0 0.00 0.00 0.00 100 1005.3
20260505234404 102 205 4.0 10.0 0.00 0.00 0.00 100 1005.2
20260505234135 102 167 4.0 10.0 0.00 0.00 0.00 100 1005.1
20260505233635 102 201 6.0 10.0 0.00 0.00 0.00 100 1005.1
20260505232904 102 158 5.0 11.0 0.00 0.00 0.00 100 1005.1
20260505232402 102 177 6.0 11.0 0.00 0.00 0.00 100 1005.2
20260505231902 102 216 2.0 9.0 0.00 0.00 0.00 100 1005.2
20260505231402 102 168 5.0 10.0 0.00 0.00 0.00 100 1005.1
20260505230901 103 178 5.0 12.0 0.00 0.00 0.00 100 1005.1
20260505230400 102 208 4.0 12.0 0.00 0.00 0.00 100 1005.1
20260505230130 103 156 2.0 9.0 0.00 0.00 0.00 100 1005.1
20260505225402 103 180 2.0 11.0 0.00 0.00 0.00 100 1004.9
20260505225358 103 139 4.0 10.0 0.00 0.00 0.00 100 1005.0
20260505224356 103 160 3.0 11.0 0.00 0.00 0.00 100 1005.0
20260505223853 103 201 3.0 9.0 0.00 0.00 0.00 100 1004.9
20260505223353 103 160 5.0 10.0 0.00 0.00 0.00 100 1004.9
20260505222853 103 170 6.0 10.0 0.00 0.00 0.00 100 1004.9
20260505222353 103 182 4.0 14.0 0.00 0.00 0.00 100 1004.8
20260505221853 103 195 4.0 14.0 0.00 0.00 0.00 100 1004.9
20260505221353 103 217 5.0 11.0 0.00 0.00 0.00 100 1005.0
20260505220852 103 191 5.0 11.0 0.00 0.00 0.00 100 1005.0
20260505220353 103 156 3.0 10.0 0.00 0.00 0.00 100 1005.0
20260505215857 103 203 0.0 10.0 0.00 0.00 0.00 100 1005.0
20260505215851 102 157 5.0 10.0 0.00 0.00 0.00 100 1005.0
20260505215121 103 198 4.0 11.0 0.00 0.00 0.00 100 1005.1
20260505214348 103 129 5.0 11.0 0.00 0.00 0.00 100 1005.3
20260505213848 103 167 6.0 11.0 0.00 0.00 0.00 100 1005.4
20260505213348 103 118 4.0 10.0 0.00 0.00 0.00 100 1005.3
20260505212848 103 150 3.0 10.0 0.00 0.00 0.00 100 1005.2
20260505212347 102 150 5.0 10.0 0.00 0.00 0.00 100 1005.4
20260505212117 102 151 5.0 10.0 0.00 0.00 0.00 100 1005.5
20260505211346 103 210 5.0 10.0 0.00 0.00 0.00 100 1005.5
20260505210846 103 171 6.0 10.0 0.00 0.00 0.00 100 1005.4
20260505210346 102 143 4.0 13.0 0.00 0.00 0.00 100 1005.3
20260505205844 103 175 6.0 13.0 0.00 0.00 0.00 100 1005.6
20260505205344 103 142 7.0 12.0 0.00 0.00 0.00 100 1005.6
20260505204843 103 212 7.0 14.0 0.00 0.00 0.00 100 1005.6
20260505204616 103 233 6.0 14.0 0.00 0.00 0.00 100 1005.6
20260505203843 101 150 5.0 13.0 0.00 0.00 0.00 100 1005.6
20260505203342 103 135 5.0 9.0 0.00 0.00 0.00 100 1005.8
20260505202842 102 187 4.0 10.0 0.00 0.00 0.00 100 1005.9
20260505202615 102 136 5.0 10.0 0.00 0.00 0.00 100 1006.0
20260505201844 102 133 5.0 10.0 0.00 0.00 0.00 100 1006.1
20260505201345 102 147 3.0 11.0 0.00 0.00 0.00 100 1006.2
20260505200844 101 177 6.0 12.0 0.00 0.00 0.00 100 1006.3
20260505200344 101 153 7.0 12.0 0.00 0.00 0.00 100 1006.3
20260505195844 101 140 5.0 9.0 0.00 0.00 0.00 100 1006.5
20260505195344 102 150 5.0 12.0 0.00 0.00 0.00 100 1006.3
20260505194344 101 177 6.0 10.0 0.00 0.00 0.00 100 1006.6
20260505193844 101 184 6.0 10.0 0.00 0.00 0.00 100 1006.7
20260505193344 101 192 4.0 9.0 0.00 0.00 0.00 100 1006.8
20260505192843 101 198 2.0 13.0 0.00 0.00 0.00 100 1006.8
20260505192344 102 154 5.0 13.0 0.00 0.00 0.00 100 1006.8
20260505191844 101 140 6.0 8.0 0.00 0.00 0.00 100 1006.8
20260505191616 101 177 3.0 11.0 0.00 0.00 0.00 100 1006.8
20260505190845 102 189 6.0 11.0 0.00 0.00 0.00 100 1006.9
20260505185843 100 142 5.0 11.0 0.00 0.00 0.00 100 1006.9
20260505185613 101 202 6.0 12.0 0.00 0.00 0.00 100 1006.9
20260505184844 100 168 4.0 12.0 0.00 0.00 0.00 100 1007.1
20260505184342 100 196 6.0 9.0 0.00 0.00 0.00 100 1007.2
20260505183843 99 132 4.0 12.0 0.00 0.00 0.00 100 1007.3
20260505183343 99 180 1.0 12.0 0.00 0.00 0.00 100 1007.4
20260505182843 99 209 5.0 12.0 0.00 0.00 0.00 100 1007.5
20260505182343 98 150 0.0 12.0 0.00 0.00 0.00 100 1007.6
20260505181843 98 139 7.0 11.0 0.00 0.00 0.00 100 1007.6
20260505181343 98 201 6.0 11.0 0.00 0.00 0.00 100 1007.7
20260505180845 98 174 4.0 11.0 0.00 0.00 0.00 100 1007.7
20260505180345 98 143 5.0 10.0 0.00 0.00 0.00 100 1007.8
20260505175844 97 137 4.0 10.0 0.00 0.00 0.00 100 1007.8
20260505175344 97 225 4.0 10.0 0.00 0.00 0.00 100 1007.9
20260505174844 97 140 5.0 12.0 0.00 0.00 0.00 100 1008.0
20260505174345 97 248 3.0 12.0 0.00 0.00 0.00 100 1007.9
20260505173844 97 264 6.0 13.0 0.00 0.00 0.00 100 1008.0
20260505173344 97 177 7.0 13.0 0.00 0.00 0.00 100 1008.0
20260505172844 97 160 5.0 11.0 0.00 0.00 0.00 100 1008.0
20260505172343 97 192 6.0 11.0 0.00 0.00 0.00 100 1008.1
20260505171842 97 125 6.0 12.0 0.00 0.00 0.00 100 1008.2
20260505171342 97 213 7.0 12.0 0.00 0.00 0.00 100 1008.1
20260505170842 96 174 4.0 9.0 0.00 0.00 0.00 100 1008.1
20260505170342 96 168 3.0 8.0 0.00 0.00 0.00 100 1008.2
20260505165843 96 215 4.0 9.0 0.00 0.00 0.00 100 1008.2
20260505165343 95 168 6.0 9.0 0.00 0.00 0.00 100 1008.2
20260505164843 95 153 4.0 9.0 0.00 0.00 0.00 100 1008.2
20260505164614 95 180 3.0 9.0 0.00 0.00 0.00 100 1008.2
20260505163844 95 175 4.0 9.0 0.00 0.00 0.00 100 1008.2
20260505163344 95 210 5.0 11.0 0.00 0.00 0.00 100 1008.2
20260505163115 95 219 5.0 11.0 0.00 0.00 0.00 100 1008.0
20260505162344 95 119 5.0 12.0 0.00 0.00 0.00 100 1008.0
20260505161844 95 216 5.0 12.0 0.00 0.00 0.00 100 1008.1
20260505161344 95 201 6.0 11.0 0.00 0.00 0.00 100 1008.2
20260505160844 94 187 5.0 11.0 0.00 0.00 0.00 100 1008.1
20260505160344 94 205 5.0 11.0 0.00 0.00 0.00 100 1008.1
20260505152844 93 217 2.0 9.0 0.00 0.00 0.00 100 1008.2
20260505152344 93 158 0.0 9.0 0.00 0.00 0.00 100 1008.2
20260505151844 93 202 2.0 9.0 0.00 0.00 0.00 100 1008.1
20260505151344 93 202 3.0 10.0 0.00 0.00 0.00 100 1008.0
20260505150845 93 147 3.0 12.0 0.00 0.00 0.00 100 1008.0
20260505140321 92 174 1.0 10.0 0.00 0.00 0.00 100 1007.5
20260505130256 92 175 0.0 11.0 0.00 0.00 0.00 100 1007.1
20260505124744 92 202 1.0 10.0 0.00 0.00 0.00 100 1006.9
20260505124244 92 182 5.0 9.0 0.00 0.00 0.00 100 1006.8
20260505123743 91 153 4.0 10.0 0.00 0.00 0.00 100 1006.8
20260505123243 91 154 5.0 10.0 0.00 0.00 0.00 100 1006.7
20260505122742 91 153 4.0 9.0 0.00 0.00 0.00 100 1006.6
20260505122242 91 180 2.0 9.0 0.00 0.00 0.00 100 1006.6
20260505121743 91 157 5.0 10.0 0.00 0.00 0.00 100 1006.5
20260505121245 91 199 4.0 10.0 0.00 0.00 0.00 100 1006.3
20260505120744 91 127 4.0 9.0 0.00 0.00 0.00 100 1006.3
20260505120244 91 189 5.0 9.0 0.00 0.00 0.00 100 1006.2
20260505115744 91 232 3.0 8.0 0.00 0.00 0.00 100 1006.2
20260505115515 91 180 2.0 7.0 0.00 0.00 0.00 100 1006.1
20260505114744 91 191 0.0 9.0 0.00 0.00 0.00 100 1006.1
20260505114515 91 184 4.0 10.0 0.00 0.00 0.00 100 1006.2
20260505113748 91 202 4.0 9.0 0.00 0.00 0.00 100 1006.2
20260505113744 91 144 5.0 10.0 0.00 0.00 0.00 100 1006.2
20260505112745 91 158 6.0 10.0 0.00 0.00 0.00 100 1006.2
20260505112244 91 136 1.0 10.0 0.00 0.00 0.00 100 1006.3
20260505111744 91 181 4.0 9.0 0.00 0.00 0.00 100 1006.1
20260505111244 91 164 5.0 10.0 0.00 0.00 0.00 100 1006.1
20260505110745 91 194 5.0 13.0 0.00 0.00 0.00 100 1006.2
20260505110244 91 185 4.0 13.0 0.00 0.00 0.00 100 1006.3
20260505101748 90 175 5.0 11.0 0.00 0.00 0.00 100 1006.5
20260505101743 90 146 1.0 11.0 0.00 0.00 0.00 100 1006.2
20260505100745 90 140 0.0 9.0 0.00 0.00 0.00 100 1006.5
20260505100243 90 156 3.0 11.0 0.00 0.00 0.00 100 1006.5
20260505095743 90 192 0.0 11.0 0.00 0.00 0.00 100 1006.5
20260505095243 90 164 2.0 11.0 0.00 0.00 0.00 100 1006.5
20260505094748 90 161 3.0 10.0 0.00 0.00 0.00 100 1006.2
20260505094744 90 177 0.0 11.0 0.00 0.00 0.00 100 1006.2
20260505093743 90 187 4.0 10.0 0.00 0.00 0.00 100 1006.5
20260505093243 90 143 2.0 9.0 0.00 0.00 0.00 100 1006.6
20260505092744 90 220 4.0 9.0 0.00 0.00 0.00 100 1006.6
20260505092244 90 122 0.0 9.0 0.00 0.00 0.00 100 1006.6
20260505091744 90 135 1.0 9.0 0.00 0.00 0.00 100 1006.6
20260505091228 90 167 1.0 12.0 0.00 0.00 0.00 100 1006.5
20260505090717 90 174 2.0 12.0 0.00 0.00 0.00 100 1006.6
20260505090217 90 174 2.0 10.0 0.00 0.00 0.00 100 1006.7
20260505085718 90 132 0.0 15.0 0.00 0.00 0.00 100 1006.7
20260505085212 90 175 6.0 15.0 0.00 0.00 0.00 100 1006.7
20260505084944 90 165 3.0 11.0 0.00 0.00 0.00 100 1006.6